This demonstration page uses our WeatherBlox Daily Observations layout. Learn more.

Left ArrowRight Arrow

40.92501, -98.34201

Hourly Observations for September 4, 2022

Temp ( °F °C ) Dew Point ( °F °C ) Humidity (%) Winds ( mph kmh ) Pressure ( in mb ) Visibility ( mi km ) Precip ( " mm )
12:53 am 00:53 Clear 55 12.8 47 8.3 74 74 Calm 30.22 1023 10 16 0.00 0.00
1:53 am 01:53 Clear 56 13.3 47 8.3 72 72 Calm 30.21 1023 10 16 0.00 0.00
2:53 am 02:53 Clear 53 11.7 47 8.3 80 80 Calm 30.19 1023 10 16 0.00 0.00
2:55 am 02:55 Clear 86 30 46 8 25 25 SSE 3 6 29.96 1014 7 11 0.00 0.00
3:55 am 03:55 Clear 86 30 48 9 27 27 SSE 3 6 29.95 1014 7 11 0.00 0.00
4:55 am 04:55 Clear 84 29 48 9 29 29 SE 3 6 29.95 1014 7 11 0.00 0.00
5:55 am 05:55 Clear 84 29 48 9 29 29 SE 7 11 29.96 1015 7 11 0.00 0.00
6:53 am 06:53 Clear 49 9.4 44 6.7 83 83 NW 5 7 30.19 1022 10 16 0.00 0.00
7:53 am 07:53 Sunny 52 11.1 47 8.3 83 83 NW 3 6 30.20 1023 10 16 0.00 0.00
8:53 am 08:53 Sunny 59 15 51 10.6 75 75 NW 3 6 30.20 1023 10 16 0.00 0.00
9:53 am 09:53 Sunny 67 19.4 53 11.7 61 61 NW 5 7 30.19 1022 10 16 0.00 0.00
10:53 am 10:53 Sunny 72 22.2 50 10 46 46 N 5 7 30.18 1022 10 16 0.00 0.00
11:53 am 11:53 Sunny 73 22.8 51 10.6 46 46 VRB 5 7 30.17 1022 10 16 0.00 0.00
12:53 pm 12:53 Sunny 76 24.4 48 8.9 37 37 NE 5 7 30.14 1021 10 16 0.00 0.00
1:53 pm 13:53 Sunny 80 26.7 51 10.6 36 36 ESE 7 11 30.11 1020 10 16 0.00 0.00
2:53 pm 14:53 Sunny 81 27.2 47 8.3 30 30 VRB 7 11 30.10 1019 10 16 0.00 0.00
3:53 pm 15:53 Sunny 81 27.2 50 10 34 34 ESE 7 11 30.07 1018 10 16 0.00 0.00
4:53 pm 16:53 Sunny 80 26.7 50 10 35 35 SE 6 9 30.06 1018 10 16 0.00 0.00
5:53 pm 17:53 Sunny 80 26.7 49 9.4 34 34 SE 9 15 30.06 1018 10 16 0.00 0.00
6:53 pm 18:53 Sunny 78 25.6 52 11.1 40 40 SE 7 11 30.05 1018 10 16 0.00 0.00
7:53 pm 19:53 Sunny 74 23.3 56 13.3 53 53 Calm 30.04 1017 10 16 0.00 0.00
8:53 pm 20:53 Clear 65 18.3 54 12.2 68 68 Calm 30.05 1018 10 16 0.00 0.00
9:53 pm 21:53 Clear 64 17.8 54 12.2 70 70 Calm 30.05 1018 10 16 0.00 0.00
10:53 pm 22:53 Clear 61 16.1 52 11.1 72 72 Calm 30.04 1017 10 16 0.00 0.00
11:53 pm 23:53 Clear 63 17.2 57 13.9 81 81 SE 6 9 30.03 1017 10 16 0.00 0.00

Powered by AerisWeather